Location: ????????
(55.0097°N, 38.5678°E)
Time: 14:17:52
(UTC+00:00)

IDEFIX/ARIANE 42P - Pass Details

Date: 14 April 2024
Orbit: 783 x 800 km, 98.5° (Epoch: 17 May)

Event Time Altitude Azimuth Distance (km) Brightness Sun altitude
Rises 00:15:37 0° 13° (NNE) 3,288 6.8 -16.4°
Reaches altitude 10° 00:18:00 10° 8° (N) 2,356 5.8 -16.2°
Maximum altitude 00:22:57 46° 296° (WNW) 1,048 3.0 -15.7°
Enters shadow 00:25:45 24° 236° (SW) 1,592 3.5 -15.4°
